TAY2MN GMMN-LPPT

Flight info

Callsign TAY2MN
Flight time 1h 5m
Altitude 36000
Route LAKAM UR722 AMSEL DCT VATZI
Aircraft B738/M-SDE2E3FGHIRWXY/LB1

Departure

Time 2026-05-07 17:01
Airport Mohammed V International Airport (GMMN)

Arrival

Time 2026-05-07 18:06
Airport Lisbon Humberto Delgado Airport (LPPT)
Time Latitude Longitude Altitude Speed Heading
2026-05-07 16:22 33.36007 -7.57913 654 ft 0 kts 165°
2026-05-07 16:50 33.36002 -7.57914 657 ft 2 kts 187°
2026-05-07 16:51 33.35977 -7.57944 655 ft 9 kts 227°
2026-05-07 16:51 33.35912 -7.57967 654 ft 12 kts 166°
2026-05-07 16:51 33.35825 -7.57935 657 ft 13 kts 162°
2026-05-07 16:51 33.35737 -7.57906 654 ft 14 kts 164°
2026-05-07 16:52 33.35649 -7.57879 655 ft 10 kts 182°
2026-05-07 16:52 33.35611 -7.57940 657 ft 6 kts 254°
2026-05-07 16:52 33.35610 -7.57945 657 ft 0 kts 254°
2026-05-07 16:53 33.35607 -7.57960 658 ft 9 kts 254°
2026-05-07 16:54 33.35561 -7.58021 658 ft 13 kts 182°
2026-05-07 16:54 33.35457 -7.57986 655 ft 16 kts 164°
2026-05-07 16:54 33.35373 -7.57957 658 ft 12 kts 164°
2026-05-07 16:54 33.35289 -7.57955 658 ft 13 kts 207°
2026-05-07 16:55 33.35245 -7.58042 656 ft 12 kts 252°
2026-05-07 16:55 33.35237 -7.58074 658 ft 0 kts 253°
2026-05-07 16:57 33.35229 -7.58105 656 ft 11 kts 253°
2026-05-07 16:57 33.35207 -7.58194 657 ft 11 kts 254°
2026-05-07 16:58 33.35217 -7.58261 658 ft 7 kts 332°
2026-05-07 16:58 33.35228 -7.58266 658 ft 0 kts 345°
2026-05-07 17:00 33.35232 -7.58267 658 ft 5 kts 344°
2026-05-07 17:00 33.35500 -7.58358 654 ft 76 kts 344°
2026-05-07 17:00 33.36223 -7.58606 653 ft 137 kts 345°
2026-05-07 17:00 33.37206 -7.58936 1058 ft 157 kts 346°
2026-05-07 17:01 33.38230 -7.59295 1951 ft 146 kts 345°
2026-05-07 17:01 33.39193 -7.59670 2727 ft 148 kts 341°
2026-05-07 17:01 33.40229 -7.60205 3042 ft 178 kts 336°
2026-05-07 17:01 33.41403 -7.60949 3270 ft 204 kts 331°
2026-05-07 17:02 33.42641 -7.61929 3532 ft 224 kts 325°
2026-05-07 17:02 33.43869 -7.63165 3986 ft 238 kts 317°
2026-05-07 17:02 33.45014 -7.64662 4650 ft 244 kts 307°
2026-05-07 17:02 33.46000 -7.66309 5456 ft 246 kts 306°
2026-05-07 17:03 33.47432 -7.67578 5805 ft 272 kts 342°
2026-05-07 17:03 33.49341 -7.67868 6418 ft 281 kts 355°
2026-05-07 17:03 33.51285 -7.67954 7119 ft 285 kts 356°
2026-05-07 17:03 33.53297 -7.68039 7785 ft 291 kts 355°
2026-05-07 17:04 33.55355 -7.68148 8408 ft 298 kts 355°
2026-05-07 17:04 33.57433 -7.68281 9174 ft 301 kts 354°
2026-05-07 17:04 33.59549 -7.68435 9833 ft 308 kts 354°
2026-05-07 17:04 33.61712 -7.68607 10299 ft 320 kts 353°
2026-05-07 17:05 33.64019 -7.68803 10464 ft 343 kts 353°
2026-05-07 17:05 33.66442 -7.69017 10613 ft 363 kts 353°
2026-05-07 17:05 33.69026 -7.69248 10901 ft 378 kts 353°
2026-05-07 17:05 33.71668 -7.69485 11450 ft 383 kts 353°
2026-05-07 17:06 33.74327 -7.69723 12174 ft 384 kts 353°
2026-05-07 17:06 33.77009 -7.69966 12793 ft 388 kts 353°
2026-05-07 17:06 33.79727 -7.70214 13382 ft 393 kts 353°
2026-05-07 17:06 33.82473 -7.70465 13976 ft 397 kts 353°
2026-05-07 17:07 33.85243 -7.70719 14578 ft 400 kts 352°
2026-05-07 17:07 33.88030 -7.70975 14911 ft 403 kts 352°
2026-05-07 17:07 33.90818 -7.71230 14935 ft 401 kts 352°
2026-05-07 17:07 33.93601 -7.71485 14946 ft 401 kts 352°
2026-05-07 17:08 33.96367 -7.71740 15054 ft 406 kts 352°
2026-05-07 17:08 33.99195 -7.72001 15662 ft 408 kts 352°
2026-05-07 17:08 34.02015 -7.72260 16405 ft 407 kts 352°
2026-05-07 17:08 34.04849 -7.72521 17045 ft 410 kts 351°
2026-05-07 17:09 34.07710 -7.72786 17603 ft 414 kts 351°
2026-05-07 17:09 34.10598 -7.73052 18176 ft 418 kts 351°
2026-05-07 17:09 34.13514 -7.73321 18682 ft 421 kts 351°
2026-05-07 17:09 34.16453 -7.73593 19181 ft 424 kts 351°
2026-05-07 17:10 34.19371 -7.73861 19681 ft 428 kts 351°
2026-05-07 17:10 34.22358 -7.74096 20181 ft 431 kts 351°
2026-05-07 17:10 34.25368 -7.74305 20687 ft 435 kts 352°
2026-05-07 17:10 34.28404 -7.74507 21163 ft 438 kts 352°
2026-05-07 17:11 34.31454 -7.74709 21617 ft 442 kts 352°
2026-05-07 17:11 34.34541 -7.74918 22071 ft 445 kts 351°
2026-05-07 17:11 34.37648 -7.75131 22517 ft 448 kts 351°
2026-05-07 17:11 34.40777 -7.75349 22953 ft 451 kts 351°
2026-05-07 17:12 34.43920 -7.75569 23385 ft 454 kts 351°
2026-05-07 17:12 34.47089 -7.75792 23754 ft 458 kts 351°
2026-05-07 17:12 34.50283 -7.76016 24149 ft 460 kts 351°
2026-05-07 17:12 34.53450 -7.76239 24517 ft 462 kts 351°
2026-05-07 17:13 34.56703 -7.76467 24899 ft 464 kts 351°
2026-05-07 17:13 34.59889 -7.76691 25262 ft 466 kts 351°
2026-05-07 17:13 34.63172 -7.76923 25623 ft 468 kts 351°
2026-05-07 17:13 34.66429 -7.77152 25967 ft 470 kts 351°
2026-05-07 17:14 34.69656 -7.77380 26302 ft 472 kts 351°
2026-05-07 17:14 34.72941 -7.77612 26639 ft 474 kts 351°
2026-05-07 17:14 34.76253 -7.77854 26993 ft 475 kts 351°
2026-05-07 17:14 34.79549 -7.78119 27314 ft 477 kts 350°
2026-05-07 17:15 34.82874 -7.78399 27623 ft 479 kts 350°
2026-05-07 17:15 34.86212 -7.78684 27921 ft 481 kts 350°
2026-05-07 17:15 34.89558 -7.78969 28221 ft 483 kts 350°
2026-05-07 17:15 34.92922 -7.79252 28519 ft 485 kts 350°
2026-05-07 17:16 34.96302 -7.79535 28809 ft 486 kts 350°
2026-05-07 17:16 34.99644 -7.79813 29078 ft 488 kts 350°
2026-05-07 17:16 35.03021 -7.80094 29455 ft 488 kts 350°
2026-05-07 17:16 35.06411 -7.80374 29929 ft 486 kts 350°
2026-05-07 17:17 35.09777 -7.80651 30364 ft 483 kts 350°
2026-05-07 17:17 35.11992 -7.80835 30613 ft 481 kts 350°
2026-05-07 17:17 35.15379 -7.81117 30945 ft 481 kts 350°
2026-05-07 17:17 35.18711 -7.81396 31250 ft 481 kts 349°
2026-05-07 17:18 35.22047 -7.81676 31585 ft 480 kts 349°
2026-05-07 17:18 35.25369 -7.81954 31969 ft 478 kts 349°
2026-05-07 17:18 35.28642 -7.82228 32286 ft 477 kts 349°
2026-05-07 17:18 35.31958 -7.82507 32573 ft 477 kts 349°
2026-05-07 17:19 35.35264 -7.82784 32895 ft 476 kts 349°
2026-05-07 17:19 35.38564 -7.83061 33241 ft 475 kts 349°
2026-05-07 17:19 35.41865 -7.83338 33579 ft 473 kts 348°
2026-05-07 17:19 35.45154 -7.83625 33878 ft 473 kts 348°
2026-05-07 17:20 35.48438 -7.83920 34143 ft 472 kts 348°
2026-05-07 17:20 35.51709 -7.84218 34422 ft 471 kts 348°
2026-05-07 17:20 35.54983 -7.84516 34640 ft 471 kts 348°
2026-05-07 17:20 35.58256 -7.84814 34890 ft 471 kts 348°
2026-05-07 17:21 35.61515 -7.85109 35170 ft 469 kts 347°
2026-05-07 17:21 35.64768 -7.85402 35454 ft 468 kts 347°
2026-05-07 17:21 35.67965 -7.85691 35703 ft 467 kts 347°
2026-05-07 17:21 35.71214 -7.85985 35921 ft 467 kts 347°
2026-05-07 17:22 35.77729 -7.86579 35944 ft 470 kts 347°
2026-05-07 17:22 35.84217 -7.87164 35939 ft 466 kts 347°
2026-05-07 17:23 35.90636 -7.87746 35941 ft 463 kts 347°
2026-05-07 17:23 35.96986 -7.88769 35935 ft 448 kts 335°
2026-05-07 17:24 35.99858 -7.90005 35960 ft 436 kts 326°
2026-05-07 17:24 36.02589 -7.91607 35960 ft 437 kts 325°
2026-05-07 17:24 36.08102 -7.94938 35953 ft 444 kts 325°
2026-05-07 17:25 36.13682 -7.98281 35943 ft 446 kts 326°
2026-05-07 17:25 36.19088 -8.01483 35920 ft 443 kts 326°
2026-05-07 17:26 36.21838 -8.03100 35614 ft 434 kts 326°
2026-05-07 17:26 36.24556 -8.04701 35197 ft 430 kts 326°
2026-05-07 17:26 36.27270 -8.06308 34854 ft 435 kts 326°
2026-05-07 17:26 36.30006 -8.07938 34503 ft 444 kts 326°
2026-05-07 17:27 36.32822 -8.09619 34199 ft 451 kts 326°
2026-05-07 17:27 36.35657 -8.11305 33907 ft 452 kts 326°
2026-05-07 17:27 36.38491 -8.12983 33639 ft 451 kts 326°
2026-05-07 17:27 36.41335 -8.14669 33375 ft 452 kts 326°
2026-05-07 17:28 36.44176 -8.16357 33119 ft 454 kts 326°
2026-05-07 17:28 36.47025 -8.18052 32883 ft 455 kts 327°
2026-05-07 17:28 36.49885 -8.19754 32629 ft 456 kts 327°
2026-05-07 17:28 36.52751 -8.21463 32371 ft 457 kts 327°
2026-05-07 17:29 36.55582 -8.23151 32120 ft 457 kts 327°
2026-05-07 17:29 36.58454 -8.24866 31874 ft 458 kts 327°
2026-05-07 17:29 36.61330 -8.26585 31615 ft 459 kts 327°
2026-05-07 17:29 36.64216 -8.28310 31368 ft 459 kts 327°
2026-05-07 17:30 36.67097 -8.30035 31121 ft 459 kts 327°
2026-05-07 17:30 36.69987 -8.31767 30874 ft 459 kts 327°
2026-05-07 17:30 36.72871 -8.33495 30643 ft 459 kts 327°
2026-05-07 17:30 36.75713 -8.35201 30415 ft 459 kts 328°
2026-05-07 17:31 36.78584 -8.36925 30176 ft 458 kts 328°
2026-05-07 17:31 36.81458 -8.38652 29932 ft 458 kts 328°
2026-05-07 17:31 36.84329 -8.40379 29649 ft 457 kts 328°
2026-05-07 17:31 36.87185 -8.42098 29373 ft 455 kts 328°
2026-05-07 17:32 36.90036 -8.43815 29100 ft 453 kts 328°
2026-05-07 17:32 36.92883 -8.45532 28827 ft 451 kts 328°
2026-05-07 17:32 36.95700 -8.47232 28582 ft 449 kts 328°
2026-05-07 17:32 36.98511 -8.48929 28315 ft 446 kts 328°
2026-05-07 17:33 37.01252 -8.50586 28061 ft 444 kts 328°
2026-05-07 17:33 37.04030 -8.52267 27794 ft 442 kts 328°
2026-05-07 17:33 37.06828 -8.53962 27535 ft 440 kts 328°
2026-05-07 17:33 37.09574 -8.55627 27274 ft 438 kts 328°
2026-05-07 17:34 37.12311 -8.57288 27022 ft 436 kts 328°
2026-05-07 17:34 37.15001 -8.58922 26785 ft 435 kts 328°
2026-05-07 17:34 37.17721 -8.60575 26548 ft 434 kts 329°
2026-05-07 17:34 37.20432 -8.62224 26293 ft 432 kts 329°
2026-05-07 17:35 37.23134 -8.63868 25922 ft 429 kts 329°
2026-05-07 17:35 37.25808 -8.65495 25462 ft 424 kts 329°
2026-05-07 17:35 37.28466 -8.67114 25061 ft 420 kts 329°
2026-05-07 17:35 37.31096 -8.68719 24979 ft 416 kts 329°
2026-05-07 17:36 37.33638 -8.70268 24623 ft 411 kts 329°
2026-05-07 17:36 37.36207 -8.71840 24093 ft 411 kts 329°
2026-05-07 17:36 37.38803 -8.73433 23284 ft 418 kts 329°
2026-05-07 17:36 37.41422 -8.75038 22622 ft 418 kts 329°
2026-05-07 17:37 37.44032 -8.76635 22149 ft 414 kts 329°
2026-05-07 17:37 37.46611 -8.78213 21694 ft 409 kts 329°
2026-05-07 17:37 37.49161 -8.79776 21183 ft 406 kts 329°
2026-05-07 17:37 37.51699 -8.81335 20671 ft 404 kts 329°
2026-05-07 17:38 37.54247 -8.82823 20164 ft 404 kts 335°
2026-05-07 17:38 37.56943 -8.83744 19691 ft 407 kts 347°
2026-05-07 17:38 37.59764 -8.84081 19247 ft 406 kts 353°
2026-05-07 17:38 37.62586 -8.84274 18811 ft 404 kts 354°
2026-05-07 17:39 37.65359 -8.84445 18227 ft 396 kts 354°
2026-05-07 17:39 37.68103 -8.84620 17355 ft 394 kts 354°
2026-05-07 17:39 37.70842 -8.84807 16764 ft 393 kts 354°
2026-05-07 17:39 37.73562 -8.85002 16250 ft 391 kts 354°
2026-05-07 17:40 37.76266 -8.85203 15789 ft 388 kts 354°
2026-05-07 17:40 37.78953 -8.85406 15328 ft 385 kts 355°
2026-05-07 17:40 37.81587 -8.85608 14881 ft 382 kts 355°
2026-05-07 17:40 37.84218 -8.85811 14441 ft 379 kts 355°
2026-05-07 17:41 37.86813 -8.86011 13962 ft 368 kts 355°
2026-05-07 17:41 37.89324 -8.86205 13480 ft 359 kts 355°
2026-05-07 17:41 37.91781 -8.86394 13000 ft 349 kts 355°
2026-05-07 17:41 37.94173 -8.86579 12604 ft 338 kts 355°
2026-05-07 17:42 37.96492 -8.86758 12217 ft 329 kts 355°
2026-05-07 17:42 37.98753 -8.86934 11823 ft 321 kts 355°
2026-05-07 17:42 38.00948 -8.87103 11445 ft 315 kts 355°
2026-05-07 17:42 38.03127 -8.87273 11189 ft 312 kts 355°
2026-05-07 17:43 38.05246 -8.87437 10979 ft 304 kts 355°
2026-05-07 17:43 38.07325 -8.87598 10919 ft 286 kts 355°
2026-05-07 17:43 38.09248 -8.87747 10922 ft 278 kts 355°
2026-05-07 17:43 38.11183 -8.87898 10931 ft 278 kts 355°
2026-05-07 17:44 38.13108 -8.88048 10925 ft 277 kts 355°
2026-05-07 17:44 38.15035 -8.88192 10918 ft 275 kts 358°
2026-05-07 17:44 38.16919 -8.87826 10773 ft 277 kts 19°
2026-05-07 17:44 38.18736 -8.87037 10544 ft 276 kts 19°
2026-05-07 17:45 38.20560 -8.86251 10265 ft 275 kts 19°
2026-05-07 17:45 38.22366 -8.85477 9986 ft 273 kts 19°
2026-05-07 17:45 38.24155 -8.84712 9656 ft 270 kts 19°
2026-05-07 17:45 38.25934 -8.83952 9317 ft 269 kts 19°
2026-05-07 17:46 38.27708 -8.83196 8974 ft 267 kts 19°
2026-05-07 17:46 38.29445 -8.82458 8639 ft 266 kts 19°
2026-05-07 17:46 38.31199 -8.81713 8305 ft 264 kts 19°
2026-05-07 17:46 38.32939 -8.80975 7997 ft 263 kts 19°
2026-05-07 17:47 38.34672 -8.80244 7664 ft 262 kts 19°
2026-05-07 17:47 38.36400 -8.79521 7337 ft 261 kts 19°
2026-05-07 17:47 38.38124 -8.78799 7028 ft 259 kts 19°
2026-05-07 17:47 38.39821 -8.78089 6938 ft 256 kts 19°
2026-05-07 17:48 38.41521 -8.77378 6944 ft 259 kts 19°
2026-05-07 17:48 38.43241 -8.76659 6935 ft 260 kts 19°
2026-05-07 17:48 38.44971 -8.75957 6922 ft 261 kts 13°
2026-05-07 17:48 38.46751 -8.76079 6923 ft 258 kts 334°
2026-05-07 17:49 38.48091 -8.77495 6919 ft 249 kts 295°
2026-05-07 17:49 38.48475 -8.79558 6938 ft 238 kts 262°
2026-05-07 17:49 38.48278 -8.81623 6926 ft 238 kts 253°
2026-05-07 17:49 38.47681 -8.83570 6930 ft 235 kts 238°
2026-05-07 17:50 38.46873 -8.85384 6925 ft 236 kts 236°
2026-05-07 17:50 38.46033 -8.87192 6928 ft 237 kts 236°
2026-05-07 17:50 38.45198 -8.88998 6920 ft 237 kts 237°
2026-05-07 17:50 38.44362 -8.90822 6928 ft 237 kts 237°
2026-05-07 17:51 38.43539 -8.92638 6922 ft 236 kts 237°
2026-05-07 17:51 38.42718 -8.94456 6927 ft 236 kts 237°
2026-05-07 17:51 38.41903 -8.96264 6928 ft 235 kts 237°
2026-05-07 17:51 38.41098 -8.98049 6922 ft 234 kts 237°
2026-05-07 17:52 38.40285 -8.99844 6930 ft 233 kts 235°
2026-05-07 17:52 38.39467 -9.01454 6930 ft 231 kts 233°
2026-05-07 17:52 38.38570 -9.03159 6938 ft 231 kts 233°
2026-05-07 17:52 38.37677 -9.04858 6938 ft 231 kts 233°
2026-05-07 17:53 38.36787 -9.06560 6934 ft 231 kts 233°
2026-05-07 17:53 38.35892 -9.08272 6939 ft 231 kts 233°
2026-05-07 17:53 38.35000 -9.09985 6946 ft 232 kts 236°
2026-05-07 17:53 38.34407 -9.11884 6934 ft 233 kts 257°
2026-05-07 17:54 38.34133 -9.13896 6938 ft 236 kts 258°
2026-05-07 17:54 38.33830 -9.15961 6946 ft 239 kts 257°
2026-05-07 17:54 38.33518 -9.18031 6941 ft 237 kts 256°
2026-05-07 17:54 38.33205 -9.20081 6925 ft 234 kts 257°
2026-05-07 17:55 38.32896 -9.22098 6941 ft 230 kts 256°
2026-05-07 17:55 38.32714 -9.24120 6922 ft 232 kts 272°
2026-05-07 17:55 38.33032 -9.26138 6949 ft 234 kts 279°
2026-05-07 17:55 38.33378 -9.28196 6952 ft 239 kts 278°
2026-05-07 17:56 38.33713 -9.30266 6943 ft 238 kts 278°
2026-05-07 17:56 38.34044 -9.32338 6929 ft 238 kts 278°
2026-05-07 17:56 38.34560 -9.34312 6920 ft 241 kts 301°
2026-05-07 17:56 38.35789 -9.35750 6938 ft 245 kts 331°
2026-05-07 17:57 38.37473 -9.36243 6956 ft 255 kts 355°
2026-05-07 17:57 38.38655 -9.36279 6956 ft 258 kts 357°
2026-05-07 17:57 38.41053 -9.36282 6939 ft 256 kts 358°
2026-05-07 17:57 38.42855 -9.36267 6775 ft 258 kts 358°
2026-05-07 17:58 38.44628 -9.36017 6521 ft 259 kts 22°
2026-05-07 17:58 38.46140 -9.34796 6222 ft 259 kts 37°
2026-05-07 17:58 38.47594 -9.33439 5836 ft 264 kts 36°
2026-05-07 17:58 38.48877 -9.31756 5443 ft 265 kts 55°
2026-05-07 17:59 38.49867 -9.29797 5089 ft 260 kts 58°
2026-05-07 17:59 38.51040 -9.28103 4765 ft 251 kts 27°
2026-05-07 17:59 38.52604 -9.27276 4585 ft 237 kts 18°
2026-05-07 17:59 38.54097 -9.26516 4462 ft 222 kts 21°
2026-05-07 18:00 38.55466 -9.25773 4300 ft 204 kts 19°
2026-05-07 18:00 38.56698 -9.25107 4156 ft 185 kts 19°
2026-05-07 18:00 38.57856 -9.24484 4038 ft 175 kts 18°
2026-05-07 18:00 38.58958 -9.23893 4032 ft 168 kts 18°
2026-05-07 18:01 38.60030 -9.23319 3886 ft 174 kts 18°
2026-05-07 18:01 38.61113 -9.22729 3678 ft 168 kts 20°
2026-05-07 18:01 38.62156 -9.22163 3450 ft 165 kts 21°
2026-05-07 18:01 38.63193 -9.21585 3243 ft 162 kts 16°
2026-05-07 18:02 38.65241 -9.20497 2811 ft 157 kts 18°
2026-05-07 18:02 38.65909 -9.20146 2670 ft 155 kts 17°
2026-05-07 18:02 38.67225 -9.19438 2389 ft 157 kts 17°
2026-05-07 18:03 38.68231 -9.18927 2153 ft 155 kts 16°
2026-05-07 18:03 38.69208 -9.18392 1942 ft 151 kts 17°
2026-05-07 18:03 38.69873 -9.18000 1823 ft 156 kts 17°
2026-05-07 18:03 38.70863 -9.17512 1590 ft 153 kts 16°
2026-05-07 18:04 38.71847 -9.16963 1412 ft 161 kts 20°
2026-05-07 18:04 38.72850 -9.16403 1186 ft 155 kts 11°
2026-05-07 18:04 38.73855 -9.15907 1000 ft 155 kts 17°
2026-05-07 18:04 38.74843 -9.15354 761 ft 155 kts 18°
2026-05-07 18:05 38.75835 -9.14830 557 ft 153 kts 16°
2026-05-07 18:05 38.76809 -9.14302 368 ft 151 kts 17°
2026-05-07 18:05 38.77713 -9.13810 346 ft 131 kts 15°
2026-05-07 18:05 38.78268 -9.13488 349 ft 56 kts 40°
2026-05-07 18:06 38.78375 -9.13321 346 ft 17 kts 86°
2026-05-07 18:06 38.78309 -9.13270 348 ft 8 kts 201°
2026-05-07 18:06 38.78259 -9.13295 349 ft 8 kts 201°
2026-05-07 18:06 38.78212 -9.13318 346 ft 7 kts 201°
2026-05-07 18:07 38.78165 -9.13343 354 ft 7 kts 201°
2026-05-07 18:07 38.78120 -9.13365 348 ft 7 kts 201°
2026-05-07 18:07 38.78077 -9.13390 347 ft 7 kts 204°
2026-05-07 18:07 38.78051 -9.13403 348 ft 3 kts 201°
2026-05-07 18:08 38.78008 -9.13411 346 ft 9 kts 172°
2026-05-07 18:08 38.77933 -9.13392 350 ft 13 kts 168°
2026-05-07 18:08 38.77867 -9.13375 346 ft 10 kts 168°
2026-05-07 18:08 38.77792 -9.13354 355 ft 5 kts 168°
2026-05-07 18:09 38.77780 -9.13351 346 ft 0 kts 167°
2026-05-07 18:11 38.77771 -9.13348 346 ft 5 kts 168°
2026-05-07 18:11 38.77737 -9.13307 351 ft 10 kts 106°
2026-05-07 18:11 38.77747 -9.13219 346 ft 10 kts 78°
2026-05-07 18:12 38.77762 -9.13117 346 ft 13 kts 79°
2026-05-07 18:12 38.77794 -9.13014 351 ft 12 kts 51°
2026-05-07 18:12 38.77862 -9.12953 348 ft 12 kts 32°
2026-05-07 18:12 38.77931 -9.12895 355 ft 12 kts 34°
2026-05-07 18:13 38.77997 -9.12838 354 ft 11 kts 30°
2026-05-07 18:13 38.78051 -9.12870 347 ft 9 kts 304°
2026-05-07 18:13 38.78060 -9.12888 350 ft 0 kts 303°